Tracking 31027 objects as of 19-Jul-2025
HD Live streaming from Space Station
objects crossing your sky now

STARLINK-4064

Track STARLINK-4064 now!
10-day predictions
STARLINK-4064 is classified as:


NORAD ID: 52665
Int'l Code: 2022-053K
Perigee: 545.8 km
Apogee: 547.9 km
Inclination: 53.2 °
Period: 95.4 minutes
Semi major axis: 6917 km
RCS: Unknown
Launch date: May 18, 2022
Source: United States (US)
Launch site: AIR FORCE EASTERN TEST RANGE (AFETR)
Your satellite tracking list
FLOCK 4V 13
Track 1 satellite(s)




NASA's NSSDC Master Catalog

Two Line Element Set (TLE):
1 52665U 22053K   25199.50313236 -.00001469  00000-0 -74198-4 0  9990
2 52665  53.2179 125.4259 0001494  89.0799 271.0364 15.08843654175696
Source of the keplerian elements: AFSPC